Miami Beach, Florida, United States (33109)
Lat: 25.79N, Lon: 80.13W
Wx Zone: FLZ173
Local Info
Past Weather Observations for Tuesday, July 29, 2014

NOTE: This archive is for the closest National Weather Service station to Miami Beach. Information may differ from the station used for current weather conditions.

Click here for Long-term Archive

Time Weather Temperature Dewpoint Humidity Pressure Winds Precip Visibility
23:53
Mostly Cloudy
82°F / 28°C 73°F / 23°C 74% 30.01 in
(1016 mb)
S 4.6 mph
(S 7 kph)
- 10SM
22:53
Mostly Cloudy
84°F / 29°C 73°F / 23°C 70% 30.01 in
(1016 mb)
SSW 3.5 mph
(SSW 6 kph)
- 10SM
21:53
Mostly Cloudy
84°F / 29°C 73°F / 23°C 70% 30.01 in
(1016 mb)
SW 4.6 mph
(SW 7 kph)
- 10SM
20:53
Mostly Cloudy
84°F / 29°C 70°F / 21°C 62% 30.01 in
(1016 mb)
Calm - 10SM
19:53
Overcast
82°F / 28°C 70°F / 21°C 66% 30.01 in
(1016 mb)
Variable 3.5 mph
(Variable 6 kph)
- 10SM
18:53
Mostly Cloudy
86°F / 30°C 70°F / 21°C 59% 30.01 in
(1016 mb)
Calm - 10SM
17:53
Mostly Cloudy
90°F / 32°C 70°F / 21°C 52% 29.98 in
(1015 mb)
N 3.5 mph
(N 6 kph)
- 10SM
16:53
Mostly Cloudy
91°F / 33°C 70°F / 21°C 49% 29.98 in
(1015 mb)
W 9.2 mph
(W 15 kph)
- 10SM
15:53
Mostly Cloudy
91°F / 33°C 73°F / 23°C 56% 29.98 in
(1015 mb)
SSE 8.1 mph
(SSE 13 kph)
0.01 in
(0.25 mm)
10SM
14:53
Mostly Cloudy
Cumulonimbus Clouds Observed
86°F / 30°C 73°F / 23°C 66% 29.98 in
(1015 mb)
NW 3.5 mph
(NW 6 kph)
0.00 in
(0.00 mm)
10SM
13:53
Mostly Cloudy
Cumulonimbus Clouds Observed
93°F / 34°C 72°F / 22°C 49% 30.01 in
(1016 mb)
SW 11.5 mph
(SW 19 kph)
- 10SM
12:53
Partly Cloudy
91°F / 33°C 73°F / 23°C 56% 30.04 in
(1017 mb)
SSW 8.1 mph
(SSW 13 kph)
- 10SM
11:53
Mostly Cloudy
Cumulonimbus Clouds Observed
88°F / 31°C 75°F / 24°C 66% 30.04 in
(1017 mb)
W 4.6 mph
(W 7 kph)
0.00 in
(0.00 mm)
10SM
11:50
Mostly Cloudy
Cumulonimbus Clouds Observed
86°F / 30°C 75°F / 24°C 70% 30.04 in
(1017 mb)
W 4.6 mph
(W 7 kph)
0.00 in
(0.00 mm)
10SM
11:31
Mostly Cloudy
Thunder Storms
84°F / 29°C 73°F / 23°C 70% 30.04 in
(1017 mb)
WNW 3.5 mph
(WNW 6 kph)
0.00 in
(0.00 mm)
10SM
11:09
Mostly Cloudy
Cumulonimbus Clouds Observed
90°F / 32°C 73°F / 23°C 59% 30.04 in
(1017 mb)
WNW 9.2 mph
(WNW 15 kph)
- 10SM
10:53
Mostly Cloudy
Cumulonimbus Clouds Observed
90°F / 32°C 73°F / 23°C 59% 30.04 in
(1017 mb)
Variable 6.9 mph
(Variable 11 kph)
- 10SM
09:53
Partly Cloudy
Cumulonimbus Clouds Observed
90°F / 32°C 72°F / 22°C 55% 30.04 in
(1017 mb)
SSW 4.6 mph
(SSW 7 kph)
- 10SM
08:53
Partly Cloudy
88°F / 31°C 73°F / 23°C 62% 30.04 in
(1017 mb)
Variable 5.8 mph
(Variable 9 kph)
- 10SM
07:53
Partly Cloudy
86°F / 30°C 73°F / 23°C 66% 30.01 in
(1016 mb)
SSW 6.9 mph
(SSW 11 kph)
- 10SM
06:53
Clear
82°F / 28°C 73°F / 23°C 74% 30.01 in
(1016 mb)
SW 4.6 mph
(SW 7 kph)
- 10SM
05:53
Partly Cloudy
81°F / 27°C 73°F / 23°C 79% 30.01 in
(1016 mb)
Calm - 10SM
04:53
Mostly Cloudy
81°F / 27°C 73°F / 23°C 79% 30.01 in
(1016 mb)
SW 4.6 mph
(SW 7 kph)
- 10SM
03:53
Mostly Cloudy
81°F / 27°C 73°F / 23°C 79% 30.01 in
(1016 mb)
SSW 4.6 mph
(SSW 7 kph)
- 10SM
02:53
Mostly Cloudy
81°F / 27°C 73°F / 23°C 79% 30.01 in
(1016 mb)
SW 5.8 mph
(SW 9 kph)
- 10SM
01:53
Mostly Cloudy
81°F / 27°C 75°F / 24°C 84% 30.01 in
(1016 mb)
SW 4.6 mph
(SW 7 kph)
- 10SM
00:53
Mostly Cloudy
82°F / 28°C 75°F / 24°C 79% 30.04 in
(1017 mb)
SSW 4.6 mph
(SSW 7 kph)
- 10SM
Time Weather Temperature Dewpoint Humidity Pressure Winds Precip Visibility


Weather for websites

WeatherForYou.com, LLC is not responsible for any damages or problems caused by this service. Current weather conditions are obtained from the closest station including government and personal stations which may have varying degrees of accuracy. Weather forecasts are derived from the NOAA NDFD. Like all things, this site belongs to Jesus Christ... He just trusts me to maintain it. If you have any questions or comments email webmaster@weatherforyou.com

Copyright © 2014, WeatherForYou.com LLC. All rights reserved.